Location: Launois
(49.6535°N, 4.5395°E)
Time: 07:53:30
(UTC+00:00)

CZ-2D R/B - Pass Details

Date: 15 August 2024
Orbit: 791 x 842 km, 98.8° (Epoch: 16 September)

Event Time Altitude Azimuth Distance (km) Brightness Sun altitude
Rises 01:25:09 0° 19° (NNE) 3,338 6.8 -22.8°
Reaches altitude 10° 01:27:34 10° 25° (NNE) 2,410 5.7 -22.6°
Maximum altitude 01:32:44 49° 100° (E) 1,048 2.7 -22.2°
Enters shadow 01:34:53 32° 155° (SSE) 1,388 3.0 -22.1°
